DLH2RW EDDF-LKPR

Flight info

Callsign DLH2RW
Flight time N/A
Altitude 29000
Route SULUS4D/07C SULUS Z650 TONSU Z35 ODOMO DCT LOMKI
Aircraft A319/M-SDE2E3FGIJ1LORWXYZ/HB1

Departure

Time N/A
Airport Frankfurt Main Airport (EDDF)

Arrival

Time 2026-05-01 07:44
Airport Václav Havel Airport Prague (LKPR)
Time Latitude Longitude Altitude Speed Heading
2026-05-01 07:23 49.91556 13.05896 31576 ft 371 kts 88°
2026-05-01 07:23 49.91286 13.13826 30741 ft 366 kts 89°
2026-05-01 07:24 49.91151 13.17748 30311 ft 363 kts 89°
2026-05-01 07:24 49.91019 13.21639 29895 ft 359 kts 89°
2026-05-01 07:24 49.90887 13.25491 29488 ft 356 kts 89°
2026-05-01 07:24 49.90757 13.29254 29082 ft 353 kts 89°
2026-05-01 07:25 49.90623 13.33032 28678 ft 349 kts 89°
2026-05-01 07:25 49.90488 13.36773 28269 ft 346 kts 89°
2026-05-01 07:25 49.90352 13.40477 27864 ft 342 kts 89°
2026-05-01 07:25 49.90327 13.44135 27448 ft 336 kts 81°
2026-05-01 07:26 49.90752 13.47651 27038 ft 329 kts 70°
2026-05-01 07:26 49.91605 13.50893 26634 ft 322 kts 59°
2026-05-01 07:26 49.92831 13.53769 26217 ft 318 kts 51°
2026-05-01 07:26 49.94180 13.56469 25815 ft 315 kts 51°
2026-05-01 07:27 49.95512 13.59158 25395 ft 313 kts 52°
2026-05-01 07:27 49.96818 13.61800 24981 ft 312 kts 52°
2026-05-01 07:27 49.98129 13.64464 24562 ft 310 kts 52°
2026-05-01 07:27 49.99435 13.67123 24136 ft 309 kts 52°
2026-05-01 07:28 50.00736 13.69773 23662 ft 308 kts 52°
2026-05-01 07:28 50.02029 13.72403 23232 ft 305 kts 52°
2026-05-01 07:28 50.03309 13.75008 22819 ft 302 kts 52°
2026-05-01 07:28 50.04578 13.77595 22408 ft 300 kts 52°
2026-05-01 07:29 50.05841 13.80171 22005 ft 298 kts 52°
2026-05-01 07:29 50.07032 13.82794 21613 ft 296 kts 59°
2026-05-01 07:29 50.07845 13.85682 21202 ft 297 kts 71°
2026-05-01 07:29 50.08280 13.88825 20793 ft 297 kts 77°
2026-05-01 07:30 50.08636 13.91990 20391 ft 296 kts 77°
2026-05-01 07:30 50.08992 13.95145 19989 ft 295 kts 77°
2026-05-01 07:30 50.09352 13.98318 19332 ft 303 kts 77°
2026-05-01 07:30 50.09725 14.01577 18766 ft 307 kts 77°
2026-05-01 07:31 50.10097 14.04854 18283 ft 307 kts 77°
2026-05-01 07:31 50.11180 14.14504 17075 ft 299 kts 78°
2026-05-01 07:32 50.11888 14.20853 16296 ft 296 kts 78°
2026-05-01 07:32 50.12239 14.24002 15910 ft 294 kts 78°
2026-05-01 07:33 50.12927 14.30248 15157 ft 291 kts 78°
2026-05-01 07:33 50.13264 14.33312 14800 ft 290 kts 78°
2026-05-01 07:33 50.13297 14.39583 14009 ft 297 kts 101°
2026-05-01 07:34 50.12468 14.42544 13619 ft 302 kts 117°
2026-05-01 07:34 50.09953 14.47786 12831 ft 301 kts 122°
2026-05-01 07:34 50.08691 14.50368 12443 ft 299 kts 122°
2026-05-01 07:35 50.07436 14.52942 12052 ft 298 kts 122°
2026-05-01 07:35 50.06205 14.55466 11681 ft 296 kts 122°
2026-05-01 07:35 50.04966 14.58009 11301 ft 294 kts 122°
2026-05-01 07:35 50.03736 14.60532 10919 ft 292 kts 122°
2026-05-01 07:36 50.02510 14.63046 10537 ft 291 kts 122°
2026-05-01 07:36 50.01289 14.65547 10124 ft 290 kts 123°
2026-05-01 07:36 50.00075 14.68028 9793 ft 285 kts 123°
2026-05-01 07:36 49.98814 14.70419 9278 ft 289 kts 129°
2026-05-01 07:37 49.95622 14.74010 8319 ft 295 kts 168°
2026-05-01 07:37 49.93594 14.73737 7693 ft 298 kts 201°
2026-05-01 07:37 49.91931 14.71959 7154 ft 298 kts 230°
2026-05-01 07:38 49.91011 14.69132 6763 ft 293 kts 260°
2026-05-01 07:38 49.91031 14.66068 6463 ft 280 kts 287°
2026-05-01 07:38 49.92953 14.61189 6012 ft 256 kts 310°
2026-05-01 07:39 49.93999 14.59068 5998 ft 238 kts 310°
2026-05-01 07:39 49.94982 14.57064 5824 ft 230 kts 310°
2026-05-01 07:39 49.96883 14.53177 5255 ft 226 kts 309°
2026-05-01 07:40 49.97833 14.51234 4943 ft 225 kts 309°
2026-05-01 07:40 49.98774 14.49305 4643 ft 224 kts 309°
2026-05-01 07:40 49.99716 14.47374 4330 ft 224 kts 309°
2026-05-01 07:40 50.00657 14.45444 4034 ft 224 kts 309°
2026-05-01 07:41 50.01600 14.43508 3732 ft 225 kts 309°
2026-05-01 07:41 50.02543 14.41569 3434 ft 225 kts 309°
2026-05-01 07:41 50.04403 14.37743 2812 ft 213 kts 308°
2026-05-01 07:42 50.05249 14.36000 2564 ft 197 kts 309°
2026-05-01 07:42 50.06052 14.34345 2285 ft 186 kts 309°
2026-05-01 07:42 50.06799 14.32804 2027 ft 171 kts 308°
2026-05-01 07:42 50.07487 14.31386 1801 ft 158 kts 308°
2026-05-01 07:43 50.08137 14.30054 1584 ft 151 kts 308°
2026-05-01 07:43 50.08747 14.28783 1396 ft 142 kts 308°
2026-05-01 07:43 50.09801 14.26604 1214 ft 91 kts 307°
2026-05-01 07:44 50.10190 14.25800 1188 ft 19 kts 312°
2026-05-01 07:44 50.10438 14.25660 1186 ft 18 kts
2026-05-01 07:45 50.10548 14.25726 1183 ft 19 kts 36°
2026-05-01 07:45 50.10664 14.25854 1176 ft 23 kts 34°
2026-05-01 07:45 50.10798 14.25995 1177 ft 22 kts 33°
2026-05-01 07:45 50.10878 14.26114 1174 ft 16 kts 78°
2026-05-01 07:46 50.10830 14.26265 1177 ft 16 kts 116°
2026-05-01 07:46 50.10778 14.26315 1174 ft 9 kts 199°
2026-05-01 07:46 50.10736 14.26295 1177 ft 0 kts 195°